timestamp,wind_dir_avg,wind_spd_avg,wind_spd_max_dir,wind_spd_gust,battery_voltage,lat,long
2023-10-11 00:04:00+00:00,167.0,3.36,170.0,4.21,12.49,47.59359,-54.27349
2023-10-11 00:14:00+00:00,172.0,4.1,188.0,5.27,12.49,47.59359,-54.27349
2023-10-11 00:24:00+00:00,167.0,3.62,166.0,4.84,12.49,47.59359,-54.27349
2023-10-11 00:34:00+00:00,160.0,2.93,159.0,3.36,12.49,47.59359,-54.27349
2023-10-11 00:44:00+00:00,150.0,4.2,139.0,5.5,12.49,47.59359,-54.27349
2023-10-11 00:54:00+00:00,170.0,3.26,170.0,4.24,12.49,47.59359,-54.27349
2023-10-11 01:04:00+00:00,149.0,2.31,150.0,3.07,12.49,47.59359,-54.27349
2023-10-11 01:14:00+00:00,163.0,3.42,165.0,4.33,12.41,47.59359,-54.27349
2023-10-11 01:24:00+00:00,174.0,4.43,192.0,5.55,12.41,47.59359,-54.27349
2023-10-11 01:34:00+00:00,172.0,3.61,156.0,4.88,12.41,47.59359,-54.27349
2023-10-11 01:44:00+00:00,149.0,2.33,139.0,3.72,12.41,47.59359,-54.27349
2023-10-11 01:54:00+00:00,145.0,2.09,153.0,3.15,12.41,47.59359,-54.27349
2023-10-11 02:04:00+00:00,164.0,3.53,161.0,4.1,12.41,47.59359,-54.27349
2023-10-11 02:14:00+00:00,175.0,4.44,202.0,5.81,12.41,47.59359,-54.27349
2023-10-11 02:24:00+00:00,143.0,2.2,138.0,3.16,12.41,47.59359,-54.27349
2023-10-11 02:34:00+00:00,132.0,1.72,126.0,2.3,12.41,47.59359,-54.27349
2023-10-11 02:44:00+00:00,101.0,1.33,105.0,1.86,12.41,47.59359,-54.27349
2023-10-11 02:54:00+00:00,143.0,1.66,165.0,3.03,12.41,47.59359,-54.27349
2023-10-11 03:04:00+00:00,193.0,3.49,185.0,5.02,12.41,47.59359,-54.27349
2023-10-11 03:14:00+00:00,157.0,3.53,138.0,5.05,12.41,47.59359,-54.27349
2023-10-11 03:24:00+00:00,155.0,2.68,162.0,3.45,12.41,47.59359,-54.27349
2023-10-11 03:34:00+00:00,168.0,3.54,167.0,4.98,12.41,47.59359,-54.27349
2023-10-11 03:44:00+00:00,148.0,2.33,141.0,5.23,12.41,47.59359,-54.27349
2023-10-11 03:54:00+00:00,143.0,4.02,141.0,5.76,12.41,47.59359,-54.27349
2023-10-11 04:04:00+00:00,166.0,2.67,156.0,3.4,12.41,47.59359,-54.27349
2023-10-11 04:14:00+00:00,164.0,2.15,177.0,2.83,12.41,47.59359,-54.27349
2023-10-11 04:24:00+00:00,139.0,2.14,168.0,3.12,12.41,47.59359,-54.27349
2023-10-11 04:34:00+00:00,132.0,1.76,128.0,2.09,12.41,47.59359,-54.27349
2023-10-11 04:44:00+00:00,157.0,1.51,151.0,2.55,12.41,47.59359,-54.27349
2023-10-11 04:54:00+00:00,124.0,1.37,131.0,1.95,12.41,47.59359,-54.27349
2023-10-11 05:04:00+00:00,208.0,0.64,130.0,1.67,12.41,47.59359,-54.27349
2023-10-11 05:14:01+00:00,212.0,1.63,219.0,2.2,12.41,47.59359,-54.27349
2023-10-11 05:24:01+00:00,157.0,2.12,171.0,3.57,12.41,47.59359,-54.27349
2023-10-11 05:34:01+00:00,96.0,0.36,90.0,0.54,12.41,47.59359,-54.27349
2023-10-11 05:44:01+00:00,186.0,2.02,182.0,2.83,12.41,47.59359,-54.27349
2023-10-11 05:54:01+00:00,179.0,3.93,177.0,5.06,12.41,47.59359,-54.27349
2023-10-11 06:04:01+00:00,194.0,3.79,194.0,4.06,12.41,47.59359,-54.27349
2023-10-11 06:14:00+00:00,180.0,6.0,180.0,6.65,12.41,47.59359,-54.27349
2023-10-11 06:24:00+00:00,179.0,6.66,181.0,8.13,12.41,47.59359,-54.27349
2023-10-11 06:34:00+00:00,182.0,6.38,193.0,7.27,12.41,47.59359,-54.27349
2023-10-11 06:44:00+00:00,170.0,7.64,171.0,9.16,12.41,47.59359,-54.27349
2023-10-11 06:54:00+00:00,163.0,5.75,165.0,6.67,12.41,47.59359,-54.27349
2023-10-11 07:04:00+00:00,161.0,6.18,157.0,7.24,12.41,47.59359,-54.27349
2023-10-11 07:14:00+00:00,170.0,6.83,171.0,7.85,12.33,47.59359,-54.27349
2023-10-11 07:24:00+00:00,166.0,5.99,170.0,6.63,12.33,47.59359,-54.27349
2023-10-11 07:34:00+00:00,164.0,7.03,161.0,8.43,12.33,47.59359,-54.27349
2023-10-11 07:44:00+00:00,166.0,6.05,156.0,6.99,12.33,47.59359,-54.27349
2023-10-11 07:54:00+00:00,167.0,6.24,160.0,7.9,12.33,47.59359,-54.27349
2023-10-11 08:04:00+00:00,168.0,7.12,160.0,8.08,12.33,47.59359,-54.27349
2023-10-11 08:14:00+00:00,168.0,6.82,158.0,7.61,12.25,47.59359,-54.27349
2023-10-11 08:24:00+00:00,167.0,6.81,165.0,7.81,12.25,47.59359,-54.27349
2023-10-11 08:34:00+00:00,170.0,6.93,169.0,7.72,12.25,47.59359,-54.27349
2023-10-11 08:44:00+00:00,163.0,6.84,163.0,7.78,12.25,47.59359,-54.27349
2023-10-11 08:54:00+00:00,164.0,6.27,165.0,6.75,12.25,47.59359,-54.27349
2023-10-11 09:04:00+00:00,168.0,6.06,166.0,6.67,12.25,47.59359,-54.27349
2023-10-11 09:14:00+00:00,169.0,6.71,170.0,8.07,12.25,47.59359,-54.27349
2023-10-11 09:24:00+00:00,172.0,6.31,172.0,7.09,12.25,47.59359,-54.27349
2023-10-11 09:34:00+00:00,170.0,6.55,169.0,7.09,12.25,47.59359,-54.27349
2023-10-11 09:44:00+00:00,178.0,7.11,177.0,7.8,12.25,47.59359,-54.27349
2023-10-11 09:54:00+00:00,181.0,7.73,183.0,8.48,12.25,47.59359,-54.27349
2023-10-11 10:04:00+00:00,180.0,7.41,182.0,8.48,12.25,47.59359,-54.27349
2023-10-11 10:14:00+00:00,180.0,7.21,180.0,7.77,12.25,47.59359,-54.27349
2023-10-11 10:24:00+00:00,183.0,7.36,183.0,8.12,12.25,47.59359,-54.27349
2023-10-11 10:34:00+00:00,190.0,6.86,195.0,7.65,12.25,47.59359,-54.27349
2023-10-11 10:44:00+00:00,191.0,7.01,193.0,7.57,12.25,47.59359,-54.27349
2023-10-11 10:54:00+00:00,189.0,6.52,191.0,7.46,12.25,47.59359,-54.27349
2023-10-11 11:04:00+00:00,192.0,5.7,194.0,6.24,12.25,47.59359,-54.27349
2023-10-11 11:14:01+00:00,192.0,5.73,192.0,6.61,12.25,47.59359,-54.27349
2023-10-11 11:24:01+00:00,187.0,5.83,186.0,6.34,12.25,47.59359,-54.27349
2023-10-11 11:34:01+00:00,197.0,5.63,203.0,6.41,12.25,47.59359,-54.27349
2023-10-11 11:44:01+00:00,227.0,4.27,223.0,4.88,12.25,47.59359,-54.27349
2023-10-11 11:54:01+00:00,203.0,4.29,215.0,5.88,12.25,47.59359,-54.27349
2023-10-11 12:04:01+00:00,209.0,6.31,205.0,7.02,12.25,47.59359,-54.27349
2023-10-11 12:14:01+00:00,214.0,5.81,216.0,6.54,12.81,47.59359,-54.27349
2023-10-11 12:24:01+00:00,219.0,5.36,216.0,5.82,12.81,47.59359,-54.27349
2023-10-11 12:34:01+00:00,219.0,4.4,218.0,4.72,12.81,47.59359,-54.27349
2023-10-11 12:44:01+00:00,221.0,4.47,221.0,4.96,12.81,47.59359,-54.27349
2023-10-11 12:54:01+00:00,210.0,3.17,218.0,4.04,12.81,47.59359,-54.27349
2023-10-11 13:04:01+00:00,211.0,2.38,214.0,2.52,12.81,47.59359,-54.27349
2023-10-11 13:14:01+00:00,217.0,2.72,220.0,2.95,13.92,47.59359,-54.27349
2023-10-11 13:24:01+00:00,225.0,3.31,225.0,3.61,13.92,47.59359,-54.27349
2023-10-11 13:34:01+00:00,222.0,3.99,214.0,4.9,13.92,47.59359,-54.27349
2023-10-11 13:44:01+00:00,217.0,3.71,216.0,4.01,13.92,47.59359,-54.27349
2023-10-11 13:54:01+00:00,216.0,3.68,221.0,3.97,13.92,47.59359,-54.27349
2023-10-11 14:04:01+00:00,215.0,3.63,214.0,4.13,13.92,47.59359,-54.27349
2023-10-11 14:14:00+00:00,220.0,4.09,218.0,4.51,13.76,47.59359,-54.27349
2023-10-11 14:24:00+00:00,235.0,3.3,235.0,3.57,13.76,47.59359,-54.27349
2023-10-11 14:34:00+00:00,240.0,3.13,240.0,3.35,13.76,47.59359,-54.27349
2023-10-11 14:44:00+00:00,248.0,2.93,252.0,3.08,13.76,47.59359,-54.27349
2023-10-11 14:54:00+00:00,241.0,3.31,240.0,3.74,13.76,47.59359,-54.27349
2023-10-11 15:04:00+00:00,234.0,2.81,234.0,3.09,13.76,47.59359,-54.27349
2023-10-11 15:14:00+00:00,219.0,2.35,219.0,2.78,13.84,47.59359,-54.27349
2023-10-11 15:24:00+00:00,211.0,2.49,208.0,2.84,13.84,47.59359,-54.27349
2023-10-11 15:34:00+00:00,217.0,2.73,218.0,2.89,13.84,47.59359,-54.27349
2023-10-11 15:44:00+00:00,206.0,3.68,202.0,4.07,13.84,47.59359,-54.27349
2023-10-11 15:54:00+00:00,205.0,4.29,203.0,4.58,13.84,47.59359,-54.27349
2023-10-11 16:04:00+00:00,205.0,4.54,208.0,4.82,13.84,47.59359,-54.27349
2023-10-11 16:14:01+00:00,197.0,4.44,200.0,4.92,13.76,47.59359,-54.27349
2023-10-11 16:24:01+00:00,199.0,5.01,204.0,5.62,13.76,47.59359,-54.27349
2023-10-11 16:34:01+00:00,193.0,4.85,194.0,5.43,13.76,47.59359,-54.27349
2023-10-11 16:44:01+00:00,203.0,6.03,205.0,6.42,13.76,47.59359,-54.27349
2023-10-11 16:54:01+00:00,200.0,5.72,196.0,7.08,13.76,47.59359,-54.27349
2023-10-11 17:04:01+00:00,208.0,5.99,210.0,6.63,13.76,47.59359,-54.27349
2023-10-11 17:14:01+00:00,208.0,5.88,209.0,6.2,14.08,47.59359,-54.27349
2023-10-11 17:24:01+00:00,200.0,5.13,203.0,5.65,14.08,47.59359,-54.27349
2023-10-11 17:34:01+00:00,206.0,5.32,207.0,5.91,14.08,47.59359,-54.27349
2023-10-11 17:44:01+00:00,211.0,5.19,211.0,5.89,14.08,47.59359,-54.27349
2023-10-11 17:54:01+00:00,209.0,5.7,208.0,6.14,14.08,47.59359,-54.27349
2023-10-11 18:04:01+00:00,211.0,5.11,209.0,5.69,14.08,47.59359,-54.27349
2023-10-11 18:14:00+00:00,211.0,4.93,212.0,5.58,13.84,47.59359,-54.27349
2023-10-11 18:24:00+00:00,219.0,4.69,218.0,5.14,13.84,47.59359,-54.27349
2023-10-11 18:34:00+00:00,209.0,5.06,212.0,5.41,13.84,47.59359,-54.27349
2023-10-11 18:44:00+00:00,200.0,5.19,198.0,5.64,13.84,47.59359,-54.27349
2023-10-11 18:54:00+00:00,202.0,5.13,201.0,5.64,13.84,47.59359,-54.27349
2023-10-11 19:04:00+00:00,205.0,5.15,206.0,5.8,13.84,47.59359,-54.27349
2023-10-11 19:14:01+00:00,211.0,5.33,211.0,5.91,13.76,47.59359,-54.27349
2023-10-11 19:24:01+00:00,221.0,4.06,221.0,4.53,13.76,47.59359,-54.27349
2023-10-11 19:34:01+00:00,223.0,3.67,219.0,3.97,13.76,47.59359,-54.27349
2023-10-11 19:44:01+00:00,241.0,2.64,240.0,2.97,13.76,47.59359,-54.27349
2023-10-11 19:54:01+00:00,240.0,2.81,243.0,3.14,13.76,47.59359,-54.27349
2023-10-11 20:04:01+00:00,232.0,2.17,229.0,2.47,13.76,47.59359,-54.27349
2023-10-11 20:14:00+00:00,188.0,2.9,190.0,3.39,13.76,47.59359,-54.27349
2023-10-11 20:24:00+00:00,206.0,3.71,201.0,4.05,13.76,47.59359,-54.27349
2023-10-11 20:34:00+00:00,205.0,3.79,200.0,4.26,13.76,47.59359,-54.27349
2023-10-11 20:44:00+00:00,204.0,3.08,205.0,3.35,13.76,47.59359,-54.27349
2023-10-11 20:54:00+00:00,195.0,2.83,198.0,3.05,13.76,47.59359,-54.27349
2023-10-11 21:04:00+00:00,204.0,2.32,198.0,2.49,13.76,47.59359,-54.27349
2023-10-11 21:14:00+00:00,248.0,1.53,242.0,1.84,12.97,47.59359,-54.27349
2023-10-11 21:24:00+00:00,289.0,2.07,292.0,2.6,12.97,47.59359,-54.27349
2023-10-11 21:34:00+00:00,298.0,4.09,302.0,4.52,12.97,47.59359,-54.27349
2023-10-11 21:44:00+00:00,292.0,3.96,298.0,4.45,12.97,47.59359,-54.27349
2023-10-11 21:54:00+00:00,280.0,3.38,281.0,3.66,12.97,47.59359,-54.27349
2023-10-11 22:04:00+00:00,267.0,3.32,269.0,3.67,12.97,47.59359,-54.27349
2023-10-11 22:14:01+00:00,275.0,3.85,278.0,4.16,12.57,47.59359,-54.27349
2023-10-11 22:24:01+00:00,267.0,2.91,268.0,3.19,12.57,47.59359,-54.27349
2023-10-11 22:34:01+00:00,274.0,2.27,287.0,2.96,12.57,47.59359,-54.27349
2023-10-11 22:44:01+00:00,269.0,4.33,272.0,4.86,12.57,47.59359,-54.27349
2023-10-11 22:54:01+00:00,272.0,4.01,273.0,4.38,12.57,47.59359,-54.27349
2023-10-11 23:04:01+00:00,275.0,3.49,273.0,3.95,12.57,47.59359,-54.27349
2023-10-11 23:14:01+00:00,285.0,3.43,288.0,3.74,12.41,47.59359,-54.27349
2023-10-11 23:24:01+00:00,222.0,2.32,227.0,2.62,12.41,47.59359,-54.27349
2023-10-11 23:34:01+00:00,226.0,3.26,226.0,3.78,12.41,47.59359,-54.27349
2023-10-11 23:44:01+00:00,245.0,2.51,237.0,2.92,12.41,47.59359,-54.27349
2023-10-11 23:54:01+00:00,288.0,2.58,282.0,2.97,12.41,47.59359,-54.27349
